COSMOS 397 DEB

Satellite information

Favourite Embed

Satellite Type and Status

DEBRISIN ORBIT

Key statistics

Satellite COSMOS 397 DEB at a glance.

Uptime

20016

Days in orbit

Revolutions

≈ 13.8

Per day

Orbit

LEO

Low Earth Orbit

Inclination

65.9

Latest

Satellite identification and parameters

Extended collection of information and parameters for COSMOS 397 DEB.

Object identification

Identified? True

Debris? True

Object name: COSMOS 397 DEB

International designator: 1971-015CL

Object number (NORAD): 6844

Object ID (CCSDS): 6844

Country: COMMONWEALTH OF INDEPENDENT STATES (CIS)

Current information (Y/N): Y

RCS size: SMALL

Orbital parameters

Period: 104.038 minutes

Inclination: 65.8983 deg

SMA: 7327.499 km

Apoapsis: 1369.487 km

Periapsis: 529.24 km

RAAN: 323.1657 deg

Eccentricy: 0.05733515

Argument of periapsis: 211.3641 deg

Mean anomaly: 145.2029 deg

Mean motion: 13.84105359 rev/day

Mean motion (dot): 0.00003794 rev/day2

B* drag term: 0.00094938335 1/REarth

Two-line elements (TLE)

Creation date: Dec. 13, 2025, 4:32 a.m.

Reference frame: TEME

Reference center: EARTH

Epoch: Dec. 12, 2025, 1:28 p.m. UTC

TLE line 0: 0 COSMOS 397 DEB

TLE line 1: 1 06844U 71015CL 25346.56117488 .00003794 00000-0 94938-3 0 9995

TLE line 2: 2 06844 65.8983 323.1657 0573351 211.3641 145.2029 13.84105359594732

Live tracking on map

Real-time ground track for satellite COSMOS 397 DEB.

In-orbit conjunctions

A list of the most updated potential collisions computed for object COSMOS 397 DEB.

Target Orbit TCA Probability of collision Miss distance Type
FENGYUN 1C DEB SSO 2025-03-10 09:25:23 0.0001031315 154.0 (m) DEBRIS
DELTA 1 DEB SSO 2024-08-21 03:23:25 0.0008739823 13.0 (m) DEBRIS

Associated space launch

The I2P satellites were the first soviet coorbital ASAT system.

COSMOS 397 DEB was lifted into orbit during the mission ‘Tsiklon-2 | I2P 6’, on board a Tsiklon-2 space rocket.

The launch took place on Feb. 25, 1971, 11:11 a.m. from 90/20.

For more information about the launch, click the button.

Launch to space Tsiklon-2 | I2P 6
Tsiklon-2 | I2P 6

Agency: N/A

Status: Launch Successful

Launch date: Feb. 25, 1971, 11:11 a.m. UTC

Rocket: Tsiklon-2

Launch pad: 90/20

Location: Baikonur Cosmodrome, Republic of Kazakhstan

...

Latest news about this satellite

There are no fresh news available about this satellite. Check back as we update our databases every day.


Newsletter sign-up

Weekly statistics, charts and insights to help you stay on top of the space industry.